User: anonymous   Login
Location: Unspecified
(0.0000°N, 0.0000°E)
Time: 16:40:02
(UTC+00:00)
Language:

VRSS-1 - Orbit

View from above orbital plane
View from above orbital plane
View from above satellite
View from above satellite

Ground track
Ground track

The orbit is defined by the following mean orbital elements,

1 38782U          26088.16583198 +.00000000 +00000-0 +21051-3 0 00008
2 38782  97.6097  68.6324 0018781 134.5094 225.7657 14.79851953    04
Epoch (UTC): 29 March 2026 03:58:47
Eccentricity: 0.0018781
inclination: 97.6097°
perigee height: 617 km
apogee height: 643 km
right ascension of ascending node: 68.6324°
argument of perigee: 134.5094°
revolutions per day: 14.79851953
mean anomaly at epoch: 225.7657°

The dashed part of the orbit path shows where the satellite is in the earth's shadow,  

DLR